• In Hungary
  • List of Countries
  • For 7 days
  • Water Temperature
  • Satellite Maps
  • Weather Map
  • News
  • Weather Widgets
  • user-avatar
    Login

    Hourly Weather Verhniy Izrog

    Today, 21 October, Sunday

    Time Temperature Precipitation Wind Pressure Humidity
    00:00 +6°C° 0 mm 2 mps 751 mmHg 76%
    01:00 +6°C° 0 mm 2 mps 751 mmHg 77%
    02:00 +6°C° 0 mm 2 mps 751 mmHg 79%
    03:00 +5°C° 0 mm 2 mps 751 mmHg 80%
    04:00 +5°C° 0 mm 2 mps 751 mmHg 81%
    05:00 +4°C° 0 mm 3 mps 751 mmHg 83%
    06:00 +3°C° 0 mm 3 mps 751 mmHg 84%
    07:00 +4°C° 0 mm 3 mps 752 mmHg 82%
    08:00 +4°C° 0 mm 3 mps 752 mmHg 81%
    09:00 +5°C° 0 mm 3 mps 752 mmHg 79%
    10:00 +7°C° 0 mm 3 mps 752 mmHg 74%
    11:00 +8°C° 0 mm 3 mps 753 mmHg 69%
    12:00 +9°C° 0 mm 3 mps 753 mmHg 65%
    13:00 +10°C° 0 mm 3 mps 753 mmHg 63%
    14:00 +10°C° 0 mm 3 mps 753 mmHg 62%
    15:00 +10°C° 0 mm 3 mps 753 mmHg 60%
    16:00 +9°C° 0 mm 3 mps 753 mmHg 65%
    17:00 +8°C° 0 mm 3 mps 753 mmHg 69%
    18:00 +7°C° 0 mm 2 mps 753 mmHg 73%
    19:00 +7°C° 0 mm 2 mps 753 mmHg 75%
    20:00 +6°C° 0 mm 2 mps 754 mmHg 76%
    21:00 +6°C° 0 mm 2 mps 754 mmHg 78%
    22:00 +6°C° 0 mm 2 mps 754 mmHg 79%
    23:00 +5°C° 0 mm 2 mps 754 mmHg 80%

    Tomorrow, 22 October, Monday

    Time Temperature Precipitation Wind Pressure Humidity
    00:00 +5°C° 0 mm 2 mps 754 mmHg 81%
    01:00 +5°C° 0 mm 2 mps 754 mmHg 83%
    02:00 +4°C° 0 mm 2 mps 754 mmHg 84%
    03:00 +4°C° 0 mm 2 mps 754 mmHg 85%
    04:00 +4°C° 0 mm 2 mps 754 mmHg 86%
    05:00 +4°C° 0 mm 2 mps 754 mmHg 87%
    06:00 +4°C° 0 mm 2 mps 754 mmHg 88%
    07:00 +4°C° 0 mm 2 mps 754 mmHg 85%
    08:00 +5°C° 0 mm 2 mps 754 mmHg 83%
    09:00 +5°C° 0 mm 2 mps 754 mmHg 81%
    10:00 +7°C° 0 mm 2 mps 754 mmHg 75%
    11:00 +8°C° 0 mm 2 mps 754 mmHg 69%
    12:00 +10°C° 0 mm 2 mps 753 mmHg 64%
    13:00 +11°C° 0 mm 1 mps 753 mmHg 63%
    14:00 +12°C° 0 mm 1 mps 752 mmHg 62%
    15:00 +12°C° 0 mm 1 mps 752 mmHg 62%
    16:00 +12°C° 0 mm 1 mps 751 mmHg 67%
    17:00 +11°C° 0 mm 1 mps 751 mmHg 71%
    18:00 +10°C° 0 mm 1 mps 751 mmHg 76%
    19:00 +10°C° 0 mm 1 mps 750 mmHg 79%
    20:00 +9°C° 0 mm 1 mps 750 mmHg 82%
    21:00 +9°C° 0 mm 1 mps 749 mmHg 85%
    22:00 +9°C° 0.2 mm 1 mps 749 mmHg 86%
    23:00 +9°C° 0.2 mm 1 mps 749 mmHg 88%

    Day after tomorrow, 23 October, Tuesday

    Time Temperature Precipitation Wind Pressure Humidity
    00:00 +9°C° 0.2 mm 1 mps 748 mmHg 90%
    01:00 +9°C° 0.3 mm 1 mps 747 mmHg 91%
    02:00 +10°C° 0.3 mm 1 mps 747 mmHg 92%
    03:00 +10°C° 0.3 mm 1 mps 746 mmHg 93%
    04:00 +10°C° 0.4 mm 1 mps 745 mmHg 92%
    05:00 +9°C° 0.4 mm 1 mps 745 mmHg 92%
    06:00 +8°C° 0.4 mm 2 mps 744 mmHg 91%
    07:00 +8°C° 0.7 mm 2 mps 743 mmHg 90%
    08:00 +8°C° 0.7 mm 3 mps 743 mmHg 88%
    09:00 +7°C° 0.7 mm 3 mps 743 mmHg 86%
    10:00 +8°C° 0.6 mm 3 mps 742 mmHg 81%
    11:00 +8°C° 0.6 mm 3 mps 742 mmHg 76%
    12:00 +7°C° 0.6 mm 4 mps 741 mmHg 71%
    13:00 +7°C° 0 mm 4 mps 741 mmHg 69%
    14:00 +8°C° 0 mm 4 mps 741 mmHg 67%
    15:00 +8°C° 0 mm 5 mps 740 mmHg 65%
    16:00 +8°C° 0 mm 4 mps 740 mmHg 69%
    17:00 +7°C° 0 mm 4 mps 740 mmHg 73%
    18:00 +7°C° 0 mm 3 mps 739 mmHg 77%
    19:00 +7°C° 0 mm 3 mps 739 mmHg 79%
    20:00 +6°C° 0 mm 4 mps 739 mmHg 80%
    21:00 +6°C° 0 mm 4 mps 738 mmHg 81%
    22:00 +6°C° 0.1 mm 4 mps 738 mmHg 82%
    23:00 +5°C° 0.1 mm 4 mps 737 mmHg 83%

    24 October, Wednesday

    Time Temperature Precipitation Wind Pressure Humidity
    00:00 +5°C° 0.1 mm 4 mps 737 mmHg 83%
    01:00 +5°C° 0.1 mm 4 mps 736 mmHg 84%
    02:00 +5°C° 0.1 mm 4 mps 735 mmHg 85%
    03:00 +5°C° 0.1 mm 4 mps 735 mmHg 85%
    04:00 +5°C° 0.1 mm 4 mps 734 mmHg 85%
    05:00 +5°C° 0.1 mm 4 mps 734 mmHg 84%
    06:00 +5°C° 0.1 mm 4 mps 733 mmHg 83%
    07:00 +5°C° 0.1 mm 5 mps 733 mmHg 82%
    08:00 +5°C° 0.1 mm 5 mps 732 mmHg 80%
    09:00 +4°C° 0.1 mm 6 mps 732 mmHg 78%
    10:00 +5°C° 0.1 mm 6 mps 731 mmHg 75%
    11:00 +5°C° 0.1 mm 7 mps 731 mmHg 72%
    12:00 +6°C° 0.1 mm 7 mps 731 mmHg 68%
    13:00 +6°C° 0.5 mm 7 mps 730 mmHg 72%
    14:00 +6°C° 0.5 mm 7 mps 729 mmHg 75%
    15:00 +6°C° 0.5 mm 7 mps 728 mmHg 78%
    16:00 +6°C° 0.6 mm 7 mps 728 mmHg 80%
    17:00 +6°C° 0.6 mm 7 mps 728 mmHg 82%
    18:00 +6°C° 0.6 mm 7 mps 727 mmHg 85%
    19:00 +6°C° 0.4 mm 7 mps 727 mmHg 85%
    20:00 +7°C° 0.4 mm 6 mps 727 mmHg 85%
    21:00 +7°C° 0.4 mm 6 mps 726 mmHg 86%
    22:00 +5°C° 0 mm 6 mps 726 mmHg 86%
    23:00 +5°C° 0 mm 6 mps 726 mmHg 86%

    25 October, Thursday

    Time Temperature Precipitation Wind Pressure Humidity
    00:00 +5°C° 0 mm 6 mps 727 mmHg 86%
    01:00 +4°C° 0 mm 6 mps 727 mmHg 85%
    02:00 +3°C° 0 mm 5 mps 727 mmHg 84%
    03:00 +3°C° 0 mm 5 mps 727 mmHg 83%
    04:00 +2°C° 0 mm 5 mps 727 mmHg 83%
    05:00 +2°C° 0 mm 5 mps 728 mmHg 83%
    06:00 +2°C° 0 mm 5 mps 728 mmHg 83%
    07:00 +2°C° 0 mm 5 mps 728 mmHg 81%
    08:00 +2°C° 0 mm 5 mps 728 mmHg 79%
    09:00 +2°C° 0 mm 6 mps 728 mmHg 78%
    10:00 +3°C° 0 mm 6 mps 728 mmHg 73%
    11:00 +3°C° 0 mm 6 mps 728 mmHg 69%
    12:00 +4°C° 0 mm 6 mps 728 mmHg 65%
    13:00 +4°C° 0 mm 6 mps 728 mmHg 64%
    14:00 +5°C° 0 mm 6 mps 728 mmHg 64%
    15:00 +5°C° 0 mm 6 mps 728 mmHg 63%
    16:00 +4°C° 0 mm 6 mps 729 mmHg 65%
    17:00 +4°C° 0 mm 6 mps 729 mmHg 67%
    18:00 +5°C° 0 mm 5 mps 729 mmHg 69%
    19:00 +3°C° 0 mm 5 mps 729 mmHg 71%
    20:00 +3°C° 0 mm 5 mps 729 mmHg 73%
    21:00 +3°C° 0 mm 5 mps 730 mmHg 76%
    22:00 +3°C° 0 mm 5 mps 730 mmHg 79%
    23:00 +3°C° 0 mm 5 mps 730 mmHg 82%

    26 October, Friday

    Time Temperature Precipitation Wind Pressure Humidity
    00:00 +4°C° 0 mm 4 mps 731 mmHg 85%
    01:00 +4°C° 0 mm 4 mps 731 mmHg 86%
    02:00 +4°C° 0 mm 4 mps 732 mmHg 87%
    03:00 +4°C° 0 mm 3 mps 732 mmHg 89%
    04:00 +3°C° 0.1 mm 3 mps 733 mmHg 88%
    05:00 +3°C° 0.1 mm 3 mps 733 mmHg 88%
    06:00 +3°C° 0.1 mm 3 mps 734 mmHg 88%
    07:00 +3°C° 0 mm 3 mps 734 mmHg 86%
    08:00 +3°C° 0 mm 3 mps 735 mmHg 85%
    09:00 +1°C° 0 mm 4 mps 735 mmHg 83%
    10:00 +3°C° 0 mm 4 mps 736 mmHg 78%
    11:00 +4°C° 0 mm 4 mps 736 mmHg 74%
    12:00 +5°C° 0 mm 4 mps 736 mmHg 69%
    13:00 +5°C° 0 mm 4 mps 737 mmHg 67%
    14:00 +5°C° 0 mm 4 mps 737 mmHg 64%
    15:00 +6°C° 0 mm 4 mps 737 mmHg 62%
    16:00 +5°C° 0.1 mm 4 mps 737 mmHg 66%
    17:00 +4°C° 0.1 mm 4 mps 738 mmHg 70%
    18:00 +4°C° 0.1 mm 3 mps 738 mmHg 74%
    19:00 +3°C° 0 mm 4 mps 738 mmHg 76%
    20:00 +3°C° 0 mm 4 mps 738 mmHg 77%
    21:00 +3°C° 0 mm 4 mps 739 mmHg 79%
    22:00 +1°C° 0 mm 4 mps 739 mmHg 81%
    23:00 +1°C° 0 mm 5 mps 739 mmHg 83%
    Show more